�������l�o���
Date,Time,MP-1(��Sv/h),MP-2(��Sv/h),MP-3(��Sv/h),MP-4(��Sv/h),MP-5(��Sv/h),MP-6(��Sv/h),MP-7(��Sv/h),MP-8(��Sv/h),����,����(m/s),���J
2020/09/21,00:00,0.669,0.948,0.609,1.164,0.840,0.386,0.672,0.634,��,2.0,��
2020/09/21,00:10,0.667,0.946,0.608,1.165,0.837,0.388,0.671,0.635,���쐼,0.6,��
2020/09/21,00:20,0.668,0.945,0.608,1.165,0.836,0.386,0.672,0.632,�쐼,1.7,��
2020/09/21,00:30,0.667,0.947,0.610,1.165,0.838,0.384,0.674,0.634,�쐼,2.0,��
2020/09/21,00:40,0.666,0.946,0.606,1.165,0.837,0.387,0.672,0.634,��쐼,1.9,��
2020/09/21,00:50,0.667,0.945,0.607,1.163,0.838,0.386,0.671,0.634,��,1.7,��
2020/09/21,01:00,0.668,0.947,0.608,1.164,0.838,0.385,0.672,0.634,��쐼,1.5,��
2020/09/21,01:10,0.667,0.947,0.607,1.164,0.839,0.386,0.672,0.632,��,1.1,�L
2020/09/21,01:20,0.669,0.947,0.606,1.163,0.839,0.386,0.673,0.633,��,3.4,�L
2020/09/21,01:30,0.666,0.946,0.605,1.163,0.838,0.386,0.673,0.635,��,2.2,��
2020/09/21,01:40,0.668,0.948,0.608,1.166,0.839,0.384,0.672,0.635,���쓌,0.6,�L
2020/09/21,01:50,0.667,0.948,0.606,1.167,0.838,0.387,0.673,0.634,�k,0.9,�L
2020/09/21,02:00,0.667,0.946,0.607,1.164,0.837,0.384,0.672,0.633,���k��,4.2,�L
2020/09/21,02:10,0.667,0.948,0.608,1.165,0.839,0.386,0.672,0.633,�k��,4.3,��
2020/09/21,02:20,0.669,0.945,0.607,1.165,0.837,0.387,0.672,0.634,�k��,2.8,�L
2020/09/21,02:30,0.669,0.947,0.608,1.163,0.837,0.387,0.669,0.629,�k�k��,1.2,�L
2020/09/21,02:40,0.668,0.946,0.608,1.166,0.837,0.387,0.669,0.632,���k��,3.6,�L
2020/09/21,02:50,0.667,0.944,0.606,1.164,0.837,0.386,0.667,0.630,�k��,3.8,�L
2020/09/21,03:00,0.668,0.948,0.608,1.165,0.840,0.385,0.667,0.629,�k��,5.7,�L
2020/09/21,03:10,0.669,0.947,0.607,1.165,0.836,0.385,0.667,0.627,�k��,4.5,��
2020/09/21,03:20,0.665,0.947,0.608,1.164,0.837,0.385,0.666,0.630,�k��,3.5,��
2020/09/21,03:30,0.667,0.946,0.607,1.163,0.837,0.384,0.666,0.629,�k��,3.2,��
2020/09/21,03:40,0.668,0.946,0.608,1.164,0.836,0.387,0.669,0.628,���k��,3.2,��
2020/09/21,03:50,0.668,0.945,0.607,1.163,0.836,0.385,0.667,0.630,�k��,2.6,��
2020/09/21,04:00,0.667,0.946,0.606,1.163,0.837,0.386,0.668,0.629,��,2.2,��
2020/09/21,04:10,0.666,0.945,0.606,1.165,0.838,0.384,0.667,0.631,�쐼,1.7,��
2020/09/21,04:20,0.667,0.945,0.608,1.165,0.836,0.386,0.667,0.629,-,CALM,��
2020/09/21,04:30,0.668,0.947,0.607,1.164,0.839,0.385,0.666,0.628,���k��,1.2,��
2020/09/21,04:40,0.669,0.947,0.608,1.163,0.837,0.385,0.668,0.629,-,CALM,��
2020/09/21,04:50,0.668,0.944,0.607,1.164,0.835,0.385,0.667,0.631,-,CALM,��
2020/09/21,05:00,0.666,0.946,0.608,1.164,0.836,0.385,0.669,0.630,-,CALM,��
2020/09/21,05:10,0.668,0.945,0.606,1.162,0.838,0.385,0.668,0.629,�k�k��,0.9,��
2020/09/21,05:20,0.669,0.945,0.607,1.162,0.838,0.386,0.669,0.631,�k,0.6,��
2020/09/21,05:30,0.667,0.947,0.607,1.166,0.839,0.385,0.668,0.629,���k��,1.1,��
2020/09/21,05:40,0.668,0.945,0.605,1.167,0.836,0.385,0.667,0.630,��,0.8,��
2020/09/21,05:50,0.668,0.945,0.607,1.161,0.836,0.385,0.669,0.629,��,1.1,��
2020/09/21,06:00,0.668,0.946,0.606,1.164,0.838,0.383,0.669,0.630,�k,0.9,��
2020/09/21,06:10,0.665,0.945,0.608,1.164,0.837,0.384,0.667,0.629,�k�k��,1.2,��
2020/09/21,06:20,0.667,0.944,0.607,1.163,0.836,0.385,0.669,0.631,�k�k��,1.2,��
2020/09/21,06:30,0.667,0.946,0.608,1.162,0.837,0.385,0.669,0.630,�k��,1.2,��
2020/09/21,06:40,0.668,0.946,0.609,1.163,0.835,0.385,0.668,0.629,�k�k��,0.9,��
2020/09/21,06:50,0.668,0.946,0.608,1.165,0.837,0.386,0.668,0.629,�k��,2.0,��
2020/09/21,07:00,0.667,0.946,0.608,1.164,0.836,0.386,0.669,0.631,�k��,2.0,��
2020/09/21,07:10,0.668,0.946,0.607,1.163,0.837,0.386,0.669,0.630,�k�k��,1.5,��
2020/09/21,07:20,0.668,0.948,0.605,1.165,0.837,0.386,0.670,0.630,�k,2.0,��
2020/09/21,07:30,0.666,0.946,0.606,1.164,0.837,0.384,0.669,0.631,�k��,1.7,��
2020/09/21,07:40,0.669,0.946,0.605,1.163,0.838,0.386,0.669,0.630,���k��,2.0,��
2020/09/21,07:50,0.668,0.945,0.605,1.167,0.837,0.386,0.668,0.630,���k��,2.2,��
2020/09/21,08:00,0.666,0.945,0.605,1.166,0.836,0.386,0.668,0.630,�k��,2.0,��
2020/09/21,08:10,0.667,0.945,0.604,1.164,0.839,0.385,0.668,0.629,���k��,3.3,��
2020/09/21,08:20,0.668,0.946,0.605,1.166,0.839,0.384,0.668,0.631,�k�k��,3.4,��
2020/09/21,08:30,0.669,0.947,0.605,1.164,0.837,0.385,0.668,0.629,�k,3.7,��
2020/09/21,08:40,0.669,0.947,0.607,1.164,0.839,0.384,0.667,0.631,�k,5.2,��
2020/09/21,08:50,0.668,0.950,0.607,1.167,0.838,0.386,0.669,0.631,�k�k��,5.3,��
2020/09/21,09:00,0.668,0.947,0.609,1.169,0.840,0.386,0.667,0.630,�k�k��,5.5,��
2020/09/21,09:10,0.667,0.945,0.607,1.167,0.839,0.385,0.669,0.631,�k�k��,4.7,��
2020/09/21,09:20,0.668,0.948,0.610,1.167,0.839,0.387,0.670,0.632,�k�k��,4.1,��
2020/09/21,09:30,0.669,0.947,0.608,1.168,0.839,0.384,0.669,0.630,�k�k��,3.8,��
2020/09/21,09:40,0.668,0.948,0.610,1.167,0.840,0.385,0.670,0.630,�k��,2.8,��
2020/09/21,09:50,0.667,0.947,0.609,1.165,0.840,0.384,0.670,0.631,�k��,2.3,��
2020/09/21,10:00,0.668,0.946,0.609,1.165,0.839,0.384,0.668,0.630,�k��,1.9,��
2020/09/21,10:10,0.667,0.946,0.608,1.166,0.837,0.383,0.669,0.631,�k�k��,1.5,��
2020/09/21,10:20,0.668,0.946,0.607,1.166,0.838,0.386,0.670,0.628,�k,2.0,��
2020/09/21,10:30,0.667,0.946,0.606,1.168,0.838,0.385,0.670,0.631,�k�k��,2.3,��
2020/09/21,10:40,0.666,0.946,0.606,1.164,0.839,0.386,0.669,0.630,�k�k��,2.9,��
2020/09/21,10:50,0.666,0.947,0.606,1.166,0.837,0.384,0.670,0.630,�k�k��,3.0,��
2020/09/21,11:00,0.666,0.945,0.604,1.165,0.836,0.384,0.670,0.628,�k�k��,3.2,��
2020/09/21,11:10,0.666,0.943,0.604,1.167,0.837,0.384,0.671,0.628,�k�k��,2.8,��
2020/09/21,11:20,0.666,0.945,0.605,1.166,0.836,0.385,0.670,0.627,�k�k��,3.0,��
2020/09/21,11:30,0.666,0.946,0.606,1.165,0.837,0.385,0.670,0.629,�k��,3.2,��
2020/09/21,11:40,0.665,0.945,0.607,1.168,0.838,0.386,0.671,0.629,�k��,3.0,��
2020/09/21,11:50,0.664,0.946,0.606,1.165,0.838,0.385,0.670,0.629,�k�k��,3.3,��
2020/09/21,12:00,0.667,0.944,0.606,1.167,0.835,0.383,0.669,0.628,�k�k��,3.1,��
2020/09/21,12:10,0.666,0.946,0.607,1.164,0.838,0.385,0.670,0.629,�k�k��,2.6,��
2020/09/21,12:20,0.666,0.945,0.606,1.166,0.840,0.385,0.671,0.628,�k��,2.3,��
2020/09/21,12:30,0.666,0.947,0.606,1.165,0.837,0.383,0.671,0.630,�k��,2.5,��
2020/09/21,12:40,0.668,0.945,0.607,1.164,0.839,0.384,0.670,0.630,���k��,2.6,��
2020/09/21,12:50,0.665,0.947,0.606,1.163,0.839,0.384,0.671,0.630,���k��,2.3,��
2020/09/21,13:00,0.667,0.946,0.606,1.163,0.838,0.384,0.670,0.630,���k��,2.0,��
2020/09/21,13:10,0.665,0.946,0.605,1.168,0.838,0.385,0.671,0.629,�k��,1.7,��
2020/09/21,13:20,0.667,0.949,0.607,1.167,0.840,0.384,0.671,0.628,��,1.7,��
2020/09/21,13:30,0.668,0.945,0.606,1.167,0.839,0.386,0.671,0.628,�k�k��,1.2,��
2020/09/21,13:40,0.667,0.946,0.605,1.167,0.838,0.383,0.670,0.630,�k�k��,1.5,��
2020/09/21,13:50,0.667,0.948,0.604,1.165,0.840,0.386,0.670,0.630,�k��,2.0,��
2020/09/21,14:00,0.667,0.949,0.606,1.168,0.840,0.386,0.672,0.628,���k��,2.0,��
2020/09/21,14:10,0.668,0.950,0.607,1.166,0.839,0.383,0.670,0.629,�k��,2.3,��
2020/09/21,14:20,0.666,0.949,0.607,1.166,0.840,0.383,0.673,0.630,���k��,2.3,��
2020/09/21,14:30,0.664,0.949,0.608,1.168,0.838,0.385,0.673,0.628,���k��,2.3,��
2020/09/21,14:40,0.666,0.948,0.607,1.168,0.841,0.385,0.672,0.629,�k��,2.0,��
2020/09/21,14:50,0.668,0.950,0.607,1.168,0.842,0.385,0.672,0.630,���k��,2.6,��
2020/09/21,15:00,0.668,0.950,0.606,1.168,0.841,0.384,0.671,0.628,��,2.0,��
2020/09/21,15:10,0.667,0.951,0.608,1.166,0.839,0.384,0.671,0.629,��,2.0,��
2020/09/21,15:20,0.666,0.949,0.606,1.165,0.841,0.385,0.672,0.631,��,2.0,��
2020/09/21,15:30,0.666,0.950,0.608,1.167,0.840,0.385,0.671,0.629,���쓌,1.7,��
2020/09/21,15:40,0.667,0.951,0.607,1.168,0.840,0.384,0.671,0.630,���쓌,2.2,��
2020/09/21,15:50,0.668,0.951,0.607,1.168,0.841,0.386,0.673,0.629,�쓌,2.0,��
2020/09/21,16:00,0.667,0.952,0.609,1.170,0.842,0.385,0.669,0.630,�쓌,1.2,��
2020/09/21,16:10,0.666,0.951,0.606,1.168,0.841,0.384,0.670,0.629,�쓌,1.4,��
2020/09/21,16:20,0.667,0.950,0.610,1.168,0.842,0.385,0.671,0.630,��,1.9,��
2020/09/21,16:30,0.668,0.953,0.609,1.168,0.840,0.386,0.671,0.628,���쓌,1.4,��
2020/09/21,16:40,0.668,0.953,0.610,1.168,0.840,0.384,0.671,0.632,�쓌,1.9,��
2020/09/21,16:50,0.669,0.955,0.610,1.168,0.842,0.387,0.671,0.630,��쓌,1.4,��
2020/09/21,17:00,0.668,0.953,0.609,1.167,0.840,0.387,0.671,0.630,��쓌,1.7,��
2020/09/21,17:10,0.667,0.953,0.607,1.168,0.842,0.386,0.670,0.630,�쓌,1.5,��
2020/09/21,17:20,0.667,0.952,0.608,1.167,0.842,0.388,0.671,0.631,��쓌,1.2,��
2020/09/21,17:30,0.666,0.952,0.609,1.169,0.842,0.386,0.672,0.631,��,0.9,��
2020/09/21,17:40,0.667,0.953,0.609,1.170,0.844,0.386,0.671,0.632,���쓌,0.9,��
2020/09/21,17:50,0.667,0.952,0.609,1.169,0.843,0.385,0.672,0.631,�쓌,0.8,��
2020/09/21,18:00,0.668,0.955,0.608,1.169,0.842,0.387,0.674,0.631,���쓌,1.1,��
2020/09/21,18:10,0.668,0.953,0.609,1.167,0.844,0.386,0.673,0.631,���쓌,0.8,��
2020/09/21,18:20,0.668,0.953,0.610,1.171,0.842,0.387,0.671,0.632,��,0.9,��
2020/09/21,18:30,0.669,0.953,0.609,1.170,0.844,0.388,0.674,0.631,�k��,1.1,��
2020/09/21,18:40,0.668,0.951,0.608,1.169,0.845,0.387,0.672,0.633,�k��,0.9,��
2020/09/21,18:50,0.668,0.952,0.610,1.169,0.842,0.387,0.674,0.632,�k��,0.9,��
2020/09/21,19:00,0.669,0.953,0.608,1.169,0.844,0.386,0.672,0.632,�k,0.9,��
2020/09/21,19:10,0.667,0.954,0.610,1.170,0.844,0.385,0.673,0.631,���k��,0.9,��
2020/09/21,19:20,0.668,0.952,0.609,1.172,0.844,0.385,0.670,0.631,���k��,1.5,��
2020/09/21,19:30,0.667,0.952,0.608,1.172,0.843,0.385,0.671,0.632,�k��,1.1,��
2020/09/21,19:40,0.668,0.951,0.609,1.170,0.843,0.386,0.674,0.631,�k��,1.4,��
2020/09/21,19:50,0.668,0.952,0.609,1.169,0.841,0.386,0.673,0.632,�k��,1.7,��
2020/09/21,20:00,0.669,0.951,0.608,1.170,0.843,0.385,0.670,0.630,�k��,2.0,��
2020/09/21,20:10,0.668,0.952,0.608,1.172,0.846,0.386,0.674,0.631,�k��,1.9,��
2020/09/21,20:20,0.667,0.950,0.608,1.169,0.843,0.385,0.672,0.631,���k��,1.7,��
2020/09/21,20:30,0.667,0.952,0.608,1.170,0.843,0.385,0.672,0.631,���k��,0.9,��
2020/09/21,20:40,0.666,0.952,0.608,1.170,0.842,0.385,0.672,0.631,���k��,1.4,��
2020/09/21,20:50,0.667,0.952,0.609,1.169,0.844,0.386,0.672,0.631,�k��,0.9,��
2020/09/21,21:00,0.668,0.951,0.609,1.173,0.843,0.385,0.672,0.631,�k�k��,0.9,��
2020/09/21,21:10,0.669,0.952,0.608,1.171,0.845,0.385,0.673,0.630,���k��,1.5,��
2020/09/21,21:20,0.668,0.951,0.609,1.171,0.842,0.387,0.673,0.633,�k��,1.1,��
2020/09/21,21:30,0.668,0.951,0.607,1.170,0.845,0.385,0.673,0.632,���k��,1.2,��
2020/09/21,21:40,0.669,0.951,0.609,1.169,0.842,0.386,0.673,0.632,��,2.2,��
2020/09/21,21:50,0.669,0.952,0.609,1.170,0.841,0.385,0.672,0.632,��,2.0,��
2020/09/21,22:00,0.669,0.950,0.608,1.170,0.845,0.384,0.672,0.632,���쐼,1.7,��
2020/09/21,22:10,0.668,0.951,0.610,1.171,0.843,0.386,0.673,0.632,��,1.2,��
2020/09/21,22:20,0.668,0.949,0.609,1.172,0.843,0.386,0.672,0.630,��,2.3,��
2020/09/21,22:30,0.669,0.951,0.608,1.172,0.843,0.386,0.673,0.630,���k��,2.5,��
2020/09/21,22:40,0.668,0.950,0.607,1.173,0.843,0.385,0.672,0.631,���k��,2.3,��
2020/09/21,22:50,0.668,0.951,0.609,1.168,0.842,0.385,0.672,0.631,���k��,2.3,��
2020/09/21,23:00,0.668,0.949,0.609,1.169,0.843,0.385,0.672,0.631,���k��,2.3,��
2020/09/21,23:10,0.668,0.951,0.608,1.172,0.843,0.386,0.673,0.630,��,2.2,��
2020/09/21,23:20,0.667,0.951,0.607,1.172,0.844,0.384,0.672,0.633,��,1.9,��
2020/09/21,23:30,0.667,0.951,0.608,1.171,0.843,0.386,0.672,0.630,���k��,2.2,��
2020/09/21,23:40,0.669,0.950,0.610,1.171,0.844,0.387,0.672,0.633,�k��,1.9,��
2020/09/21,23:50,0.670,0.950,0.609,1.172,0.843,0.386,0.672,0.633,�k,1.5,��
